Theta_e
292 294 294 295 294 295 294 293 293 291 292 290 286 288 292 293 288 286 292 294 291 293 296 298 299 300 299 300 301 302 301 300 299 299 298 299 299 299 296 296 297 297 297 298 297 296 295 294 294 294 294 295 295 296 296 296 296 296 296 294 294 293 292 292 292 291 290 288 287 287 286 285 284 284 284 283 283 283 283 283 282 282 282 282 282 282 282
291 291 292 293 292 291 291 292 294 294 292 291 291 291 293 293 291 293 294 294 294 296 298 299 301 302 302 302 303 300 299 300 302 302 302 302 303 301 300 300 300 299 299 299 297 296 295 294 294 293 294 294 294 294 295 295 295 295 295 293 293 292 292 292 292 291 290 289 287 286 285 284 285 284 284 283 283 283 283 283 282 282 282 282 282 282 281
287 290 292 292 291 291 289 292 292 292 293 292 293 292 293 294 293 294 294 293 293 298 301 301 302 303 303 302 300 300 301 302 302 302 303 304 304 304 302 301 301 301 299 298 297 296 296 295 295 293 294 294 294 294 295 295 294 294 294 293 293 292 291 291 291 291 290 289 287 285 285 285 284 283 283 283 283 282 283 283 282 282 282 282 282 282 281
285 289 289 289 290 289 288 288 290 291 290 288 290 290 294 292 290 292 292 290 291 297 301 302 302 302 299 299 300 301 302 303 302 303 303 304 305 304 304 305 304 303 302 300 298 298 298 297 296 294 294 294 293 293 294 294 294 293 293 292 292 292 291 291 291 290 289 288 286 285 285 284 284 284 283 283 283 282 282 282 282 282 281 281 281 282 281
285 289 290 288 288 286 283 284 289 292 292 293 294 295 295 294 295 291 288 290 296 299 300 299 300 301 300 300 300 301 302 303 303 303 304 304 305 305 306 306 306 306 304 302 301 301 300 300 297 295 295 293 293 294 293 294 293 292 292 292 292 291 291 290 290 289 288 287 286 285 285 285 284 283 283 282 282 282 282 282 282 281 281 281 281 281 280
285 288 288 288 285 277 280 292 296 295 292 293 291 291 294 296 296 293 296 297 299 300 299 299 299 300 300 301 303 304 303 303 303 303 304 305 305 306 306 306 305 305 304 303 302 301 301 300 297 296 294 294 294 294 294 293 292 291 291 291 291 290 290 289 289 288 287 286 286 285 285 285 284 284 283 283 283 283 282 282 282 281 281 281 281 281 280
285 288 287 283 277 280 291 296 298 298 297 296 295 295 295 296 297 297 296 296 297 299 300 301 301 302 303 303 301 301 303 304 304 304 304 304 304 304 304 304 302 301 302 302 301 299 297 296 296 294 293 293 293 293 292 291 291 290 290 290 290 290 289 289 288 287 287 287 286 285 285 285 284 283 283 283 283 283 282 282 281 281 281 281 281 281 280
288 286 285 277 279 288 294 296 297 299 298 297 296 293 296 297 297 298 296 297 298 299 300 301 302 301 302 301 301 301 302 303 304 303 304 304 304 303 304 303 302 302 301 301 299 298 297 295 293 293 293 292 292 291 291 290 290 290 289 289 289 289 288 288 287 287 286 286 286 285 285 284 284 283 283 283 282 283 282 282 282 282 281 281 281 281 280
282 284 284 283 290 289 290 292 294 294 292 293 292 288 292 298 299 298 297 298 299 299 300 301 301 301 300 298 300 302 300 301 301 302 302 304 304 303 303 302 302 302 299 298 297 295 292 293 292 292 292 291 291 289 289 289 289 288 288 288 288 287 287 287 287 287 287 286 286 285 285 284 283 283 283 282 282 282 281 282 281 280 280 281 280 280 279
288 283 282 283 282 279 286 294 298 300 299 299 300 294 290 299 299 301 299 298 299 299 300 300 300 299 295 294 296 301 300 300 300 300 301 302 302 302 301 298 295 293 292 291 290 292 291 290 290 290 290 290 289 288 288 288 288 287 287 287 288 288 287 287 287 287 286 286 285 285 284 283 284 283 283 283 282 282 281 280 280 280 280 280 279 279 279
286 283 281 281 279 283 291 292 295 297 297 299 296 292 288 297 298 298 299 299 299 299 298 298 298 295 291 293 297 301 298 300 300 300 299 300 299 296 295 295 294 293 291 290 289 289 289 288 288 289 289 288 288 287 287 287 287 287 287 288 287 287 287 287 286 286 286 286 285 284 284 284 284 284 283 282 282 282 282 281 280 280 280 279 279 279 279
285 284 282 280 285 285 290 292 292 292 296 299 294 284 285 296 298 299 298 298 298 298 299 298 297 294 291 293 299 301 299 299 299 299 300 298 294 292 289 288 290 289 288 287 287 288 288 288 287 288 288 288 286 286 286 287 286 286 287 287 288 288 287 287 286 286 286 285 285 284 284 284 284 284 283 282 281 281 281 281 280 280 279 279 278 278 278
284 284 283 286 287 293 293 295 294 292 298 296 286 281 290 296 297 298 299 298 298 298 298 298 295 297 299 301 297 291 292 292 291 289 289 291 291 290 289 288 286 287 287 289 288 287 287 287 287 287 287 287 286 286 286 286 285 287 287 288 287 287 286 286 285 285 285 285 284 284 284 284 284 283 283 282 281 281 280 280 280 279 279 279 278 278 278
283 284 282 283 287 292 295 296 293 296 293 285 285 295 296 298 297 295 298 298 298 299 299 299 299 301 301 296 289 292 291 294 292 289 288 287 287 286 286 286 286 287 286 286 285 285 285 286 286 287 286 285 285 285 285 285 286 287 286 287 286 286 285 285 285 284 284 285 284 284 284 284 283 283 283 282 282 282 281 280 279 279 279 279 279 278 278
286 285 282 281 278 288 295 292 291 294 290 291 298 294 292 293 295 294 295 297 299 299 298 300 300 300 294 294 294 292 290 290 289 288 288 288 287 286 285 285 285 286 285 284 284 284 285 285 286 286 285 284 284 284 285 285 286 286 286 286 285 285 284 284 283 283 283 283 283 283 283 283 283 282 282 282 282 282 281 280 279 279 278 278 278 278 278
283 283 280 282 289 292 297 296 290 293 296 299 297 298 298 294 291 292 295 296 297 297 298 298 296 296 295 290 290 288 287 287 287 287 287 288 287 286 286 286 285 285 285 284 283 284 284 285 285 285 284 283 283 284 284 285 285 285 285 285 284 283 283 283 282 283 283 283 283 283 283 283 282 282 282 281 281 281 281 280 280 279 278 278 278 278 277
288 286 289 290 290 292 296 298 298 299 300 300 297 298 299 298 294 291 293 295 294 293 294 294 294 294 292 292 290 289 289 287 287 286 286 286 286 285 285 284 284 284 284 283 283 283 284 284 284 284 284 283 282 282 283 284 284 284 283 283 283 282 282 282 282 283 283 283 283 283 283 283 282 281 281 281 280 281 280 280 280 279 278 278 278 278 278
290 291 290 290 289 290 292 297 297 297 299 300 295 295 297 295 295 292 294 295 294 291 292 293 293 293 293 290 288 288 288 287 286 286 285 285 285 284 283 283 283 283 283 283 282 281 282 282 283 283 284 284 283 283 283 284 284 283 283 282 282 282 282 282 282 282 282 282 282 283 283 283 283 282 281 281 281 280 280 280 280 280 279 279 279 279 279
288 283 292 292 292 293 291 292 293 294 292 294 293 292 294 294 292 290 291 292 293 292 290 293 294 293 290 288 288 286 285 285 285 285 285 284 283 283 283 283 282 282 282 281 281 281 279 279 280 281 281 282 283 283 283 283 283 283 282 282 281 281 281 281 281 282 282 282 282 282 282 283 283 283 282 282 281 280 281 281 280 281 280 279 279 279 279
285 285 290 291 292 292 292 292 292 293 295 295 292 292 293 293 292 292 293 292 290 290 290 291 292 293 291 288 287 285 284 284 284 284 284 283 282 283 282 282 282 282 282 281 280 279 278 277 277 278 278 279 280 281 282 283 282 282 282 281 281 281 281 281 282 282 282 277 280 282 282 282 282 282 282 282 281 281 281 281 280 280 280 279 279 279 279
286 289 289 290 291 292 293 295 294 294 293 293 293 293 292 291 289 290 290 290 290 290 291 291 291 290 289 288 287 285 284 282 282 283 282 282 282 281 280 281 282 282 281 280 279 277 275 275 275 275 275 274 276 280 280 281 282 282 281 279 280 280 281 281 281 281 281 281 282 281 281 281 281 281 281 281 281 280 279 281 282 281 280 280 279 280 280
282 284 287 291 286 286 291 294 295 294 293 291 290 290 290 291 290 291 290 292 288 286 288 289 290 290 289 287 287 285 284 283 282 281 281 281 280 280 280 281 281 280 279 277 276 275 274 274 274 273 273 272 272 275 278 280 281 280 279 279 279 279 280 280 279 280 280 280 280 280 279 278 277 276 276 280 280 280 278 278 279 280 280 279 279 279 278
283 288 292 292 291 291 293 296 297 297 295 292 290 290 291 292 291 291 290 289 289 287 285 286 286 287 288 286 286 285 284 283 282 281 280 280 279 279 279 279 279 278 277 275 274 273 272 272 272 271 271 271 272 273 276 279 279 279 279 279 278 278 278 279 278 279 278 278 278 278 278 278 278 277 278 279 280 279 279 279 279 280 280 279 279 278 278
289 291 291 291 290 290 293 295 296 295 295 293 293 294 294 294 294 292 290 290 290 291 288 285 286 288 287 286 286 285 283 282 281 280 280 280 279 279 279 279 278 276 275 274 273 272 272 271 270 270 269 268 269 270 272 277 278 279 279 279 278 278 278 277 276 277 277 276 276 277 277 278 278 278 278 276 276 279 280 280 280 280 280 280 280 279 279
288 293 294 293 292 293 295 295 294 292 291 291 291 292 293 293 292 290 289 289 290 290 288 285 284 286 286 285 285 285 282 281 280 280 279 279 279 279 279 278 276 275 275 274 273 272 271 270 270 269 268 267 266 267 269 273 277 278 278 278 277 276 275 275 275 275 275 275 276 276 275 276 276 277 277 276 275 275 277 279 279 279 279 279 279 279 279
293 293 294 293 289 290 291 291 292 293 292 290 289 290 291 290 290 289 288 289 289 288 288 287 284 284 286 284 284 283 281 280 279 279 278 278 278 278 277 277 276 276 274 272 270 270 270 269 268 267 266 265 265 265 266 271 275 276 275 275 275 275 275 274 275 275 275 275 276 276 276 276 276 277 277 277 275 274 273 272 273 274 276 276 277 277 277
293 293 292 289 289 291 292 290 291 294 291 290 290 290 291 289 287 287 287 286 286 286 286 286 285 284 284 284 283 282 281 279 279 278 278 278 278 278 277 276 275 273 271 270 269 269 268 267 267 266 265 263 262 263 266 271 272 272 272 272 272 269 268 271 275 275 275 275 274 274 274 274 274 273 273 273 273 273 273 273 272 271 269 270 273 274 274
292 293 292 288 288 290 292 294 292 292 291 289 289 288 288 286 284 284 283 283 282 281 282 284 283 283 282 282 282 280 279 278 279 279 278 278 277 276 274 273 271 270 269 268 267 267 267 266 266 264 263 262 262 262 266 270 271 270 270 271 271 271 271 271 272 272 272 272 272 272 272 271 271 270 270 271 272 271 271 271 269 267 267 267 266 270 272
291 292 291 291 293 294 292 287 287 288 289 288 286 287 285 284 283 283 284 284 284 282 281 281 282 283 283 281 282 280 279 279 278 278 277 275 273 272 270 269 268 268 267 266 266 267 267 266 266 264 263 262 261 264 267 269 270 269 269 270 270 270 270 269 269 269 269 268 269 269 268 268 269 269 268 269 268 269 268 268 266 266 266 265 266 267 268
290 291 291 291 291 291 289 288 289 289 289 289 286 284 284 285 284 284 284 283 282 282 283 282 281 281 281 281 281 280 279 279 279 276 273 271 270 269 268 267 267 267 266 266 266 266 266 266 266 264 263 261 262 264 266 267 267 267 267 268 268 268 268 267 267 267 267 267 266 266 267 268 268 268 267 267 267 267 267 266 266 265 265 265 266 267 266
283 289 288 289 288 288 287 287 289 289 290 288 286 285 283 283 285 285 284 283 281 281 281 281 281 281 280 281 281 280 278 275 273 270 269 269 268 268 268 269 269 268 267 266 265 265 265 264 264 263 261 260 261 264 266 267 266 266 266 267 266 266 267 267 268 268 267 266 266 267 267 267 267 266 265 265 265 266 265 265 264 264 264 264 265 264 264
272 279 283 283 285 286 285 286 287 288 289 288 282 281 283 282 282 283 284 281 281 281 280 279 279 279 280 278 275 273 271 270 268 267 267 268 268 268 269 270 270 267 266 264 264 264 264 263 262 261 260 260 261 264 267 268 269 269 268 266 267 267 267 267 267 266 266 265 266 266 265 266 266 265 265 265 265 264 264 264 263 263 264 263 263 263 263
266 274 281 282 280 279 280 282 284 285 286 284 283 285 285 284 284 285 285 283 281 279 279 279 279 278 275 273 271 270 269 268 267 267 266 266 265 264 265 265 265 264 263 263 263 263 263 262 261 259 259 260 262 264 265 267 268 267 267 267 267 266 264 265 265 265 264 265 265 265 265 265 265 265 265 264 263 263 264 263 262 262 262 262 262 262 263
262 264 267 266 267 273 280 284 285 284 285 286 285 284 284 283 283 284 282 280 279 279 278 278 276 272 272 270 269 268 267 267 266 265 264 263 262 262 262 262 261 261 260 261 261 261 261 261 260 260 260 261 262 263 264 265 266 266 266 266 266 265 264 264 264 264 264 263 262 261 262 262 264 264 262 262 262 262 262 261 261 261 261 261 261 260 263
262 263 264 265 267 268 269 269 277 285 285 284 281 279 281 282 281 281 280 279 278 279 279 275 272 271 270 269 268 268 269 269 267 264 263 261 260 260 260 260 260 260 260 260 260 260 260 260 261 260 260 261 262 263 263 264 264 265 264 265 264 264 264 264 264 264 263 262 262 262 262 262 262 261 261 261 262 262 261 261 260 260 260 260 260 259 260
260 261 262 262 263 263 263 265 267 273 282 284 283 282 280 279 279 279 278 278 279 277 273 272 272 270 269 268 268 269 271 269 265 263 261 260 260 260 260 261 260 260 259 259 259 259 260 260 259 260 261 261 260 260 261 262 263 263 262 263 262 262 262 262 261 261 261 262 262 262 261 260 260 260 260 260 261 261 261 260 260 260 260 260 259 259 258
260 259 260 261 262 262 262 264 265 265 270 279 281 279 277 277 278 277 275 274 273 273 272 272 270 269 269 270 271 271 269 265 263 261 260 260 261 261 261 261 261 261 261 260 260 258 259 260 258 259 261 261 260 259 259 259 262 262 262 262 262 261 261 261 261 261 260 260 260 260 259 259 259 259 259 260 260 259 260 260 259 258 259 258 258 258 258
258 259 259 259 260 261 262 263 263 264 266 273 273 275 277 276 274 273 273 272 272 272 272 272 271 271 270 268 267 264 263 263 261 261 260 261 262 262 262 262 262 263 264 262 259 258 259 258 257 260 261 261 260 259 258 258 259 262 262 262 262 261 261 260 260 259 259 259 258 259 259 259 259 259 258 259 259 258 259 259 258 258 257 257 257 256 257
257 258 258 259 259 260 260 261 262 262 262 266 270 269 269 271 271 272 271 270 270 270 271 270 269 268 266 265 264 262 262 261 261 261 261 262 263 263 261 258 256 257 258 257 257 257 257 257 258 259 259 258 257 257 256 257 258 261 261 261 260 261 260 260 259 258 258 257 258 257 258 258 258 258 258 258 258 257 257 257 257 257 257 257 256 257 257
256 256 256 257 257 258 258 260 261 261 262 263 265 266 267 268 269 269 268 267 268 268 269 268 269 267 266 264 262 261 261 261 261 261 262 261 258 256 256 256 255 256 256 255 256 256 255 255 257 259 258 258 258 258 257 256 257 259 260 260 260 259 259 258 258 258 257 258 257 256 257 257 257 257 257 257 257 256 257 256 256 256 256 256 256 256 255
255 255 256 256 257 257 257 258 259 260 260 260 261 262 263 265 266 266 266 265 265 266 268 269 268 266 265 263 261 260 260 260 261 260 259 259 260 261 260 256 255 254 255 256 256 255 255 256 258 258 258 259 258 257 257 256 258 258 258 258 258 258 258 258 258 258 258 257 257 258 257 257 256 256 256 256 256 256 256 256 256 256 256 256 256 255 255
255 255 255 256 256 257 256 257 257 258 258 258 259 260 261 263 264 264 264 265 265 265 264 264 263 263 261 260 259 259 259 259 258 258 258 260 262 262 258 255 254 254 254 254 255 255 256 256 257 257 258 258 256 254 255 257 257 257 258 257 257 257 257 257 257 257 257 257 257 257 256 256 257 256 256 255 256 255 255 255 255 255 255 255 254 255 255
255 255 254 255 255 255 256 256 256 256 256 256 257 258 260 261 262 263 262 261 261 260 259 258 257 257 258 258 257 256 255 255 254 254 254 253 252 254 258 255 254 254 253 253 255 256 256 256 257 257 256 256 256 254 255 258 258 257 257 256 256 257 256 256 256 256 256 256 256 256 256 256 257 257 256 256 256 255 255 255 255 256 255 255 254 254 253
255 255 255 254 254 255 255 255 255 255 255 255 256 257 258 258 259 259 258 258 258 258 257 257 258 258 258 258 257 256 256 256 256 257 256 255 254 254 254 254 254 253 253 254 255 255 256 256 256 255 254 254 254 255 257 257 257 257 257 257 256 256 255 255 255 255 256 256 256 256 256 255 255 256 256 256 256 255 254 254 255 254 254 254 254 254 254
255 255 255 255 255 255 256 255 255 254 255 255 255 255 255 256 257 258 258 257 257 257 257 257 257 258 258 258 257 257 257 257 258 260 260 258 256 254 253 253 254 254 253 254 255 255 256 256 255 254 255 255 255 255 258 258 258 257 257 257 256 256 256 256 255 255 255 255 255 255 255 255 256 255 255 255 254 255 255 254 254 254 253 254 254 254 254
255 255 256 256 255 255 256 256 256 256 256 255 254 254 254 254 254 255 256 256 256 256 256 256 255 255 254 253 253 254 254 254 253 252 254 257 259 255 254 254 254 254 254 254 256 256 256 255 255 255 255 255 256 258 258 258 258 258 258 257 256 255 256 256 255 255 255 255 255 255 255 255 255 255 255 255 255 255 254 253 253 254 254 254 254 254 254
255 256 255 255 255 255 255 255 256 255 254 254 252 252 253 254 254 254 254 255 255 255 255 256 256 256 257 258 258 256 255 255 254 255 255 254 254 254 254 254 254 254 255 256 256 257 257 256 256 255 255 255 256 258 258 258 258 258 258 257 256 256 256 256 255 255 255 255 254 253 253 253 253 254 253 252 253 253 253 253 253 254 254 254 253 253 252
254 254 255 255 255 255 255 254 254 253 253 252 253 253 254 254 254 255 255 255 255 255 255 255 255 256 257 257 257 258 259 258 255 255 256 256 256 256 256 256 256 255 255 255 255 255 255 255 255 255 255 255 257 258 257 258 257 257 257 257 257 256 256 256 255 255 254 254 253 254 254 254 254 254 253 253 254 254 254 253 253 254 254 254 254 254 253
254 254 255 255 255 255 255 255 254 254 254 255 255 255 255 255 255 255 255 255 255 255 255 255 255 256 256 256 257 257 257 258 258 256 256 257 257 257 256 255 255 255 256 256 256 256 255 255 255 255 255 255 258 257 257 257 256 256 256 257 256 256 256 255 255 255 254 253 254 253 254 254 254 253 253 253 253 253 253 252 253 253 253 254 253 253 253
254 254 254 254 254 254 254 255 254 255 255 256 255 256 256 256 255 254 255 255 255 255 255 255 255 255 256 256 257 257 257 257 257 257 257 257 257 257 257 257 256 256 256 256 256 256 255 254 255 255 256 257 256 256 256 256 256 256 256 255 255 255 254 253 253 252 252 253 253 253 253 253 253 253 252 253 253 253 253 253 253 252 251 252 252 253 253
254 253 253 253 254 254 254 255 255 255 256 256 256 256 256 256 255 255 256 255 255 254 254 254 254 255 256 256 256 257 257 257 257 257 257 257 257 256 256 256 256 256 256 256 256 256 257 256 256 255 256 256 256 256 256 256 256 255 254 255 255 255 254 254 254 254 254 254 253 253 253 253 253 252 252 253 252 252 253 252 252 253 252 253 253 253 253
253 254 254 254 254 253 253 253 254 254 255 255 255 256 255 255 254 254 254 255 255 254 254 253 252 253 254 255 255 255 256 256 256 257 256 257 257 256 256 255 256 256 256 256 255 255 255 255 254 253 253 255 255 255 253 253 254 254 254 254 253 254 253 253 253 253 253 253 253 253 253 253 253 252 252 252 252 252 252 252 252 252 253 253 253 253 253
Wind_Speed
16 18 15 4 6 6 7 12 12 13 14 13 15 19 21 19 15 18 14 12 19 21 25 19 18 10 10 7 8 7 4 5 5 4 5 7 8 8 8 11 10 10 10 8 8 7 7 7 9 9 8 8 9 9 9 10 10 12 10 11 12 12 12 13 12 10 10 9 7 8 8 7 7 8 9 8 7 8 8 8 7 7 8 7 8 8 7
15 15 17 12 11 10 8 8 11 10 13 18 20 21 23 23 19 16 17 19 24 23 24 21 12 7 9 10 7 4 2 6 7 7 8 9 8 9 10 9 9 10 11 8 8 6 7 10 10 10 9 9 10 11 11 11 11 11 11 12 12 12 12 12 10 10 10 8 9 8 8 9 9 9 8 7 7 7 8 7 7 8 6 6 8 9 10
14 20 19 18 16 14 19 15 8 8 12 16 20 21 19 15 18 19 22 24 24 22 23 16 11 7 3 6 9 9 8 9 10 10 11 11 11 9 8 8 9 9 8 8 7 7 9 11 11 10 9 8 8 9 9 10 11 11 11 11 12 12 12 11 10 10 9 10 9 10 9 8 7 8 7 7 6 5 6 7 7 8 8 8 8 8 8
11 16 17 19 15 11 12 14 15 15 20 22 20 16 12 15 19 22 19 19 20 24 16 9 15 4 8 12 11 11 11 12 12 13 13 12 12 12 12 12 11 10 10 9 8 8 9 10 9 8 8 8 8 10 10 10 10 10 11 11 12 11 11 10 10 10 10 10 10 9 8 8 8 6 8 8 7 9 9 8 7 6 9 10 10 8 7
12 14 10 14 10 6 9 14 23 26 23 16 11 13 19 23 19 15 14 18 19 20 15 9 14 9 9 12 11 11 16 19 18 16 16 14 14 13 15 16 14 12 12 10 7 7 7 7 7 8 8 8 10 10 9 9 9 10 12 11 11 11 10 10 10 10 10 10 10 8 6 6 6 9 10 10 10 9 10 10 8 9 8 8 8 5 5
4 13 7 4 6 15 13 15 24 20 20 19 19 20 23 20 14 15 17 17 18 20 20 19 19 13 11 12 14 16 15 16 18 18 16 17 17 17 16 15 14 11 6 6 6 8 7 6 5 6 8 9 7 7 8 8 10 10 11 11 10 10 10 10 10 10 9 8 7 7 6 6 6 6 7 9 7 7 7 6 6 7 7 7 5 7 6
8 9 5 5 16 15 12 16 13 15 18 20 24 24 23 20 16 16 20 23 26 28 21 16 19 17 14 15 16 18 17 19 17 17 15 17 17 18 20 15 10 9 9 9 7 6 7 5 4 5 6 6 6 7 8 9 10 10 10 10 10 10 10 10 9 7 9 9 8 7 7 6 6 7 7 6 7 6 6 8 9 9 9 8 7 5 4
7 9 9 14 7 3 6 11 13 11 15 18 15 17 19 21 21 20 21 27 29 26 24 21 17 19 19 15 17 19 17 14 11 13 14 18 19 18 13 11 10 11 12 11 8 6 2 3 4 5 6 6 7 7 8 9 9 9 9 9 9 9 9 8 9 9 8 7 8 7 8 7 7 7 7 8 8 6 5 5 4 4 4 3 5 6 6
11 8 13 19 8 14 9 9 11 10 11 11 13 12 16 20 20 21 22 26 25 25 21 22 19 17 12 16 21 19 12 14 14 17 16 14 14 10 10 10 12 7 3 3 2 2 3 3 5 6 6 7 8 8 8 7 8 9 9 9 9 7 9 9 9 10 10 9 7 8 7 7 8 7 8 9 7 6 7 6 6 7 7 5 4 6 7
11 13 16 12 12 14 12 20 21 8 9 11 9 13 14 13 15 19 21 25 27 24 20 16 19 8 4 16 20 15 12 17 20 16 14 12 11 12 10 4 2 2 2 2 2 3 4 4 5 6 7 8 8 8 8 8 9 9 9 9 9 9 9 7 9 9 9 7 7 7 8 9 8 7 5 4 6 8 8 8 8 7 6 6 6 6 7
11 11 12 9 13 11 8 16 15 8 8 10 5 6 14 13 21 15 17 22 22 18 16 19 11 5 8 18 18 8 14 11 11 12 15 15 11 5 4 4 4 4 3 3 4 4 6 6 6 7 8 9 8 8 8 9 9 9 10 9 9 8 9 9 7 9 6 8 9 9 8 7 8 8 8 8 6 6 6 5 6 5 6 6 6 5 7
15 13 12 13 7 9 7 7 4 4 8 10 7 12 8 16 21 11 16 18 16 17 18 17 12 10 13 13 19 4 10 8 10 11 12 10 7 4 2 1 1 2 4 5 5 6 6 6 7 8 9 8 7 8 9 9 9 9 9 9 9 8 8 8 7 5 6 9 8 9 9 8 7 7 6 7 7 7 7 5 6 5 6 6 9 7 7
15 19 14 9 8 5 4 10 4 4 10 15 12 16 10 7 5 11 12 15 17 16 16 14 11 16 18 20 3 5 5 5 2 0 2 2 1 3 3 3 4 4 4 4 5 5 5 7 7 8 7 6 7 7 8 8 8 8 7 7 8 8 8 8 6 6 6 7 9 7 7 7 7 6 7 7 7 7 7 5 6 5 6 6 5 4 3
12 12 17 13 10 5 10 10 8 11 8 11 15 10 1 5 6 5 12 14 14 14 16 13 12 17 15 7 4 4 4 4 4 3 3 3 3 3 3 4 5 5 5 5 6 5 5 5 5 5 4 6 6 7 6 5 5 6 7 7 8 7 6 6 6 6 7 5 6 6 7 8 8 7 5 6 7 7 6 6 8 7 6 6 6 5 4
12 8 10 10 14 4 14 5 4 6 9 10 10 3 4 4 5 7 8 10 12 14 14 16 15 12 4 6 6 6 5 5 6 6 6 6 7 7 7 6 4 7 7 7 7 7 6 6 6 4 6 7 5 5 4 5 5 6 7 7 8 6 6 6 7 7 7 7 6 5 6 7 9 7 7 7 6 5 6 6 7 8 7 5 6 5 4
10 11 13 8 8 7 7 14 13 11 19 8 4 5 6 6 6 6 6 9 9 5 6 8 6 4 5 4 3 1 2 1 2 3 3 3 4 4 3 5 7 5 8 7 8 7 6 6 5 5 7 8 6 6 6 6 6 5 6 6 6 7 6 6 6 6 6 6 6 6 7 7 7 8 7 7 7 6 6 6 6 5 5 5 5 5 5
10 7 8 1 5 1 8 14 10 7 14 9 8 6 7 6 6 5 3 7 5 5 5 5 5 6 7 6 3 6 4 5 5 6 7 7 7 6 6 6 5 3 7 9 8 7 6 5 4 4 4 9 7 7 6 6 7 7 6 8 8 7 7 7 7 6 6 6 6 6 7 8 8 7 8 8 7 6 6 6 6 6 5 5 5 5 5
6 10 12 9 7 6 7 10 8 6 8 10 5 8 9 6 2 5 5 5 4 2 3 5 5 6 4 4 4 5 3 5 4 3 4 5 5 6 6 6 6 5 7 7 8 9 6 4 4 3 3 7 10 6 6 6 7 7 8 9 8 7 7 6 6 7 7 6 6 6 7 6 7 7 9 7 6 7 6 6 6 6 5 5 5 5 5
5 5 3 6 9 10 11 10 11 10 8 6 4 5 6 4 2 4 5 4 5 6 8 8 6 3 3 6 6 3 3 5 7 7 6 6 6 7 7 7 8 8 8 8 8 8 8 3 4 4 5 2 6 6 7 6 7 8 9 8 8 7 7 7 7 6 8 7 7 6 6 6 5 5 6 6 6 6 6 5 5 5 5 5 5 5 4
6 6 13 16 16 12 9 7 8 12 9 7 6 5 7 6 4 4 6 3 5 4 4 7 1 12 7 8 9 8 5 5 5 7 7 7 7 5 6 8 6 7 6 7 9 8 6 4 3 4 5 6 6 6 5 6 7 9 8 7 7 7 7 7 7 6 6 8 8 6 5 5 5 5 4 4 5 6 6 6 6 5 5 5 5 5 4
9 11 14 17 17 13 13 13 10 9 8 7 8 6 8 10 11 12 10 7 8 6 11 6 8 9 10 12 11 10 6 4 5 6 6 6 7 8 9 8 7 7 9 8 7 8 6 4 4 5 6 5 4 6 6 6 8 9 8 9 9 8 7 6 6 6 6 6 6 6 6 4 3 2 4 4 4 3 2 1 2 4 5 4 3 2 2
11 8 11 11 10 10 11 9 7 7 8 6 9 12 13 13 12 12 12 13 5 4 6 7 8 11 10 9 9 10 8 6 6 7 7 6 7 7 5 7 8 9 8 9 9 8 5 4 4 5 6 5 4 4 4 6 7 9 9 8 8 6 5 6 5 5 5 5 4 5 6 5 5 5 8 8 4 2 2 3 6 5 2 1 1 2 2
10 12 12 9 8 11 13 14 12 11 10 7 9 11 14 14 12 11 10 12 12 10 9 5 7 9 7 9 9 9 10 7 5 5 7 9 9 10 11 11 10 11 10 8 8 9 6 5 6 7 8 5 5 3 4 4 7 9 9 6 5 5 5 5 6 5 5 5 4 4 5 5 6 7 7 7 11 9 7 7 6 7 9 8 7 5 3
14 16 18 13 8 11 15 13 9 8 4 5 10 12 11 13 14 10 11 12 14 14 9 8 8 9 7 7 9 9 7 8 10 7 5 3 4 6 5 6 9 10 9 8 8 9 7 6 6 5 7 5 4 3 2 4 6 8 9 7 7 6 5 4 6 5 4 4 5 5 4 4 5 6 7 8 8 10 10 9 10 9 8 9 8 7 7
13 14 14 11 10 13 12 12 8 7 5 5 8 12 14 12 12 10 12 12 10 10 6 8 5 5 5 7 8 8 9 8 9 8 8 9 6 9 7 8 9 9 8 7 6 6 6 6 8 7 9 5 3 2 2 3 6 8 7 7 8 7 5 6 5 6 5 5 4 5 5 5 5 5 6 7 9 8 9 15 16 15 13 12 12 12 11
14 16 16 11 3 8 9 11 15 15 12 9 9 11 13 9 9 7 10 10 8 5 5 6 7 6 7 8 7 7 9 9 9 10 8 9 8 7 8 9 8 6 7 7 6 7 7 6 6 5 7 5 3 2 1 1 5 7 7 7 7 6 6 6 6 5 4 4 5 5 4 4 4 4 5 5 7 10 8 7 7 10 14 14 11 11 10
11 14 14 10 10 14 14 13 15 16 7 4 9 14 11 4 4 5 3 4 4 4 5 5 6 5 3 4 7 7 10 9 7 7 7 7 8 6 7 8 9 8 9 8 7 6 8 7 6 9 8 4 3 2 2 4 7 7 8 8 7 7 9 6 4 4 4 3 3 3 3 4 4 3 3 4 5 7 7 8 7 6 4 5 8 9 7
14 12 12 13 15 15 15 13 13 15 11 10 10 10 7 2 2 4 5 5 5 4 5 6 8 9 8 7 10 9 8 9 11 10 9 9 6 7 8 8 8 8 7 7 6 5 4 6 10 11 7 3 3 2 2 5 8 9 8 10 7 5 5 5 4 4 4 3 3 3 3 3 3 3 4 4 3 3 3 3 5 5 4 3 3 6 10
15 14 10 13 17 19 12 2 3 8 12 10 7 5 4 6 8 7 8 7 6 5 6 7 8 10 11 11 11 13 14 13 12 12 10 9 9 9 8 9 8 8 8 8 6 5 6 6 9 10 5 2 2 2 4 7 7 8 7 6 5 5 4 4 4 4 4 4 3 4 5 5 4 4 4 4 3 4 3 4 4 3 4 4 3 4 6
18 16 16 15 15 16 13 12 14 14 14 11 9 8 9 10 10 10 10 8 7 10 9 5 7 8 7 10 10 13 16 16 13 11 12 9 8 9 10 10 10 8 7 6 6 5 5 6 9 9 5 2 1 2 4 8 9 9 9 9 7 5 5 5 6 6 5 4 5 6 5 4 3 4 4 4 3 4 4 4 4 5 4 3 3 3 3
19 15 14 13 12 11 13 15 16 16 15 10 10 9 9 8 12 11 9 8 6 8 7 8 8 7 8 9 7 4 4 7 10 12 11 8 7 8 9 11 17 14 9 9 8 6 8 7 5 4 2 1 2 5 6 7 7 9 8 7 7 9 10 8 6 5 5 6 4 4 4 4 4 4 4 4 4 3 4 4 3 3 3 3 3 2 2
17 18 13 9 11 13 14 13 14 15 15 9 5 10 13 13 13 15 11 11 14 13 10 10 10 12 9 7 8 10 11 11 10 9 9 9 9 7 7 5 6 10 12 11 7 6 6 7 7 4 2 1 3 4 4 7 6 7 6 8 7 6 6 9 6 5 3 3 4 4 3 4 4 4 4 3 4 4 4 4 4 3 3 4 3 3 3
15 16 15 13 11 10 12 12 12 15 15 12 14 16 13 11 13 13 12 11 7 7 9 9 8 8 9 12 14 13 13 10 9 9 11 11 7 5 4 7 11 12 9 5 5 4 5 5 5 4 3 3 2 3 4 7 7 6 6 6 6 6 7 5 6 6 5 4 3 3 3 3 4 3 3 3 3 3 3 3 3 3 3 2 3 2 2
11 11 14 16 12 12 14 16 14 15 15 14 12 11 9 10 12 10 7 6 9 10 11 11 10 11 14 16 16 14 13 13 10 10 12 11 9 7 6 7 8 8 8 6 5 4 3 4 4 4 4 5 5 5 5 7 5 6 6 6 7 7 6 5 5 5 5 3 3 4 4 3 3 3 3 3 3 3 3 3 3 3 4 2 2 0 1
13 16 15 16 14 13 12 12 15 14 13 14 12 11 12 10 9 9 8 10 13 13 10 11 14 14 16 17 16 11 14 16 13 13 10 7 8 8 10 11 10 10 9 6 4 4 3 3 3 4 6 6 6 6 5 7 6 6 5 6 6 6 6 4 5 4 4 5 4 4 4 4 3 4 4 4 3 3 3 3 3 3 3 3 2 1 1
14 15 13 13 12 14 14 14 13 17 15 13 14 13 12 10 9 8 10 7 4 8 13 14 10 12 17 15 11 12 12 11 16 13 10 9 8 8 9 11 11 10 9 7 3 2 4 5 5 6 5 5 5 5 4 5 5 5 5 6 6 5 4 4 4 5 3 4 4 3 3 5 5 3 3 2 3 2 3 3 3 2 2 2 2 2 1
13 14 14 14 13 14 15 13 11 12 15 13 11 9 9 9 9 5 6 7 8 10 11 13 11 11 10 12 11 9 9 14 11 9 10 10 10 10 10 9 7 9 10 9 6 4 3 5 5 7 6 5 5 5 5 6 5 5 5 5 5 6 6 6 4 5 4 3 4 4 5 4 3 3 2 2 3 2 3 3 2 2 2 2 2 2 2
15 13 14 14 14 15 14 12 13 12 14 13 6 4 7 8 7 9 9 8 8 9 9 10 14 13 12 10 10 11 11 9 9 10 9 9 10 11 8 8 8 6 5 5 8 7 5 5 6 5 5 5 5 5 5 6 7 6 4 5 5 5 4 5 4 3 4 3 3 4 4 4 4 3 2 2 2 2 2 2 2 2 2 2 1 1 1
15 14 12 13 13 12 13 12 11 10 10 11 7 1 1 4 6 8 10 10 10 9 8 8 9 14 16 17 13 10 11 10 10 10 11 11 8 8 9 5 4 5 3 6 7 5 4 4 4 5 5 5 7 6 6 7 6 4 5 5 5 5 5 4 4 3 3 3 3 3 3 3 3 3 3 2 2 2 2 2 2 2 2 1 1 1 1
13 14 15 15 14 13 12 11 11 10 10 8 8 4 3 2 7 9 9 10 8 9 10 11 15 13 14 17 14 11 10 11 11 11 12 12 14 12 7 7 6 5 6 7 6 5 5 6 5 4 4 4 4 4 4 6 6 4 4 4 4 4 4 4 5 4 4 3 4 4 3 2 2 2 2 3 2 2 2 2 2 1 1 0 0 0 0
13 14 14 13 13 12 11 11 10 10 9 9 8 7 7 3 4 9 10 9 8 7 7 8 11 12 13 13 12 12 12 10 11 10 9 9 8 5 7 6 3 3 4 4 4 5 6 5 5 4 4 4 4 5 5 5 5 3 4 4 4 5 4 4 3 4 3 3 2 3 3 3 3 3 2 2 2 2 1 1 1 1 1 1 1 1 1
14 13 14 13 12 11 12 10 9 8 9 9 9 8 8 7 4 7 7 7 9 9 9 8 10 14 13 13 13 13 13 12 12 8 6 4 3 8 9 5 4 3 5 6 6 5 5 4 3 4 4 4 4 6 6 3 4 4 4 4 4 4 4 4 3 2 2 2 2 2 2 2 2 2 2 2 2 2 2 1 1 1 1 1 1 2 2
13 14 13 12 11 11 10 10 9 8 7 9 10 9 8 7 7 7 9 10 10 10 11 12 14 15 14 12 12 13 10 8 10 12 10 7 9 7 3 8 7 4 6 5 5 4 4 3 3 3 5 4 5 8 7 4 4 4 4 4 3 4 3 3 3 3 2 2 2 2 2 2 2 2 3 2 2 2 2 2 2 2 1 1 1 2 2
12 10 10 11 11 10 10 9 9 9 8 9 9 9 9 8 8 8 8 8 10 10 10 11 11 10 10 11 12 9 7 7 8 6 8 7 8 10 9 7 7 7 6 4 4 4 4 4 4 7 9 10 9 8 4 4 4 4 4 4 4 3 4 3 2 2 3 2 3 3 3 2 2 2 2 2 1 1 1 2 1 1 1 1 2 2 2
11 9 9 9 10 9 8 7 7 7 5 4 7 10 10 10 10 10 10 10 11 10 10 10 9 9 9 8 7 7 7 5 3 2 6 7 8 5 2 5 7 6 5 6 5 5 4 5 7 9 9 9 8 8 5 4 4 4 4 4 3 3 3 3 3 2 2 2 2 2 1 2 2 1 1 1 1 1 2 2 2 2 1 2 2 3 3
9 8 8 8 8 8 6 6 5 5 4 4 8 11 11 10 10 10 11 10 10 9 9 9 9 9 9 10 9 11 12 7 6 6 5 3 3 7 8 6 5 5 7 7 5 5 5 8 10 9 9 8 7 6 4 4 3 4 4 4 3 2 2 2 2 2 2 2 2 2 2 2 1 2 1 1 1 1 1 1 2 2 3 3 3 3 3
9 9 9 8 8 8 7 5 6 7 9 9 10 9 9 10 10 9 10 11 11 11 10 10 10 10 9 8 7 6 7 7 8 8 7 8 11 10 8 9 10 10 8 5 4 5 5 6 7 8 8 7 6 4 4 4 3 3 3 2 2 2 2 2 2 2 2 2 0 0 1 1 1 1 1 3 3 3 2 3 3 3 3 2 3 3 4
9 8 8 8 8 7 6 6 9 9 10 10 8 7 7 8 9 9 9 9 9 10 10 9 7 8 8 8 7 6 4 4 9 7 5 7 8 8 7 6 6 7 9 8 9 8 8 8 8 7 7 6 3 3 3 3 3 2 2 2 2 2 2 2 2 2 1 1 2 2 2 2 3 3 2 2 3 2 2 3 3 3 3 3 4 4 4
8 8 8 8 8 9 8 7 8 9 8 6 7 7 7 7 8 9 8 9 10 10 9 10 10 9 8 7 8 6 6 6 4 7 6 6 7 8 8 9 9 7 5 6 7 5 5 6 7 6 5 3 3 2 2 2 1 1 1 2 2 1 1 2 1 1 1 2 2 2 2 2 2 2 2 2 2 2 2 4 5 4 4 3 4 3 5
9 7 7 7 7 8 7 7 8 7 6 6 6 5 4 4 7 7 7 7 8 9 9 8 8 8 8 8 8 9 9 11 12 11 9 9 9 8 7 6 6 7 7 5 6 5 5 6 6 5 2 2 2 2 2 2 2 2 1 1 1 1 1 0 1 1 2 2 3 3 3 3 2 3 2 3 3 4 4 4 4 5 7 6 6 6 5
8 8 7 7 7 8 10 8 7 7 7 7 7 6 6 7 8 7 7 6 6 9 9 8 9 8 8 8 8 8 9 10 10 10 8 8 8 8 8 6 6 5 4 5 4 4 4 3 3 2 2 2 1 1 1 1 1 1 1 1 1 1 1 1 2 3 3 3 2 3 3 3 3 4 4 5 5 5 4 4 5 4 5 6 6 6 6
9 8 8 7 7 8 8 9 10 9 8 7 7 7 8 7 7 8 8 9 8 8 7 9 10 8 7 7 8 8 8 8 7 7 7 7 7 6 6 7 6 5 5 4 4 3 3 3 2 3 2 1 1 0 1 1 1 1 1 1 2 2 2 2 2 2 3 3 3 3 4 4 3 4 5 5 5 4 5 5 5 5 5 5 5 5 5
Wind_Direction
258 265 271 144 231 238 220 216 205 197 194 188 203 221 231 223 221 238 250 245 244 253 261 258 251 233 226 217 240 249 276 307 279 250 230 229 239 237 224 228 230 235 233 228 212 194 199 205 214 213 207 204 203 203 201 199 196 202 192 188 195 195 196 198 199 188 181 173 169 169 174 165 163 170 171 164 160 163 173 176 182 147 151 151 151 151 153
251 258 261 250 230 245 252 234 233 210 186 197 204 219 223 225 233 244 258 263 254 254 260 259 260 254 228 234 215 209 289 278 296 287 267 247 233 220 219 221 216 223 232 227 216 197 196 209 211 207 204 202 202 201 199 196 197 198 186 192 195 195 198 198 193 186 181 169 175 165 165 172 178 175 169 159 152 156 173 175 167 172 164 146 163 167 164
248 249 249 251 240 245 256 253 237 225 222 216 211 221 231 233 244 245 244 248 260 257 252 269 268 253 214 233 221 225 226 226 226 231 236 241 249 250 236 237 241 232 230 233 223 204 210 210 205 199 201 201 197 203 202 194 193 189 184 191 199 196 197 195 188 179 176 177 172 173 174 170 160 150 156 162 167 165 170 168 165 165 170 166 167 171 166
242 245 241 245 246 237 246 255 247 234 232 233 231 232 228 227 231 234 242 251 256 261 260 237 266 205 210 223 219 222 231 234 238 245 246 243 245 246 245 235 226 228 222 221 213 213 218 215 201 194 193 192 190 204 201 197 186 176 184 194 198 198 193 186 183 177 179 171 171 171 161 162 155 150 160 166 171 178 176 168 169 163 180 182 176 173 167
236 244 222 238 246 227 232 236 239 232 231 232 238 231 229 232 233 243 239 236 241 256 268 264 252 226 230 230 222 221 232 237 236 233 236 237 239 242 246 246 244 227 217 212 213 223 229 216 200 198 174 179 202 200 192 188 170 175 186 193 194 194 189 182 182 176 174 167 171 169 166 160 160 166 173 175 178 178 183 184 177 178 182 173 182 158 158
239 247 240 210 228 231 223 222 230 225 226 223 224 231 230 228 205 228 238 254 260 258 256 253 262 248 228 230 230 228 231 237 237 238 239 241 243 248 249 244 241 245 228 222 219 224 231 226 203 175 181 196 198 181 173 169 176 180 183 190 189 188 180 177 179 172 167 166 165 165 160 163 161 165 168 180 174 176 172 163 161 174 177 174 161 173 170
238 255 246 225 229 235 226 238 240 234 231 229 226 230 234 236 222 221 240 247 249 253 259 262 260 264 266 258 247 243 234 239 242 243 238 241 242 233 237 241 238 226 231 229 220 217 223 210 183 171 182 185 165 166 172 173 178 173 181 182 185 183 178 180 172 167 161 164 166 158 160 157 153 166 171 160 158 161 164 169 174 180 181 181 180 156 148
256 253 232 243 197 214 249 253 244 235 229 228 236 248 247 239 232 226 231 238 243 249 253 253 255 267 273 277 260 247 239 230 240 245 232 232 236 243 237 231 222 215 220 217 216 223 157 166 170 174 175 165 165 172 166 171 168 171 172 175 182 177 173 171 166 164 159 162 167 162 161 154 155 159 164 171 167 153 142 135 109 104 105 131 157 158 163
236 216 229 241 299 289 262 266 234 184 197 199 198 228 239 235 230 226 231 242 245 245 247 254 263 264 276 274 269 246 200 224 222 227 235 239 248 248 246 216 221 220 200 203 201 137 139 166 162 170 157 157 159 152 161 166 159 166 169 176 178 171 175 171 170 169 166 161 156 157 153 152 161 159 161 163 152 140 151 145 144 164 165 142 144 150 161
218 236 248 249 241 240 237 239 251 225 207 223 205 221 251 257 239 223 224 236 244 247 253 255 252 258 292 269 265 257 189 209 221 229 242 248 242 236 231 218 208 158 162 135 135 171 148 152 156 148 151 156 147 149 154 153 157 163 169 177 175 171 174 167 167 162 162 151 145 152 157 166 158 160 149 119 148 159 156 158 162 161 145 132 148 151 154
225 222 229 227 235 237 228 252 251 221 182 195 146 211 244 241 251 228 226 236 242 247 246 245 239 205 237 254 261 240 185 195 192 205 221 221 220 219 205 214 212 183 170 151 142 139 147 147 154 150 148 143 142 148 153 156 161 163 173 176 170 168 169 162 158 157 149 154 160 159 162 160 160 152 156 158 145 143 147 141 149 132 148 142 149 155 166
229 234 234 235 221 243 215 243 256 198 156 130 126 231 229 233 249 224 213 226 234 234 236 238 225 199 229 248 261 244 165 173 196 207 221 214 197 198 177 209 246 123 128 130 140 153 157 152 146 148 146 150 149 150 155 155 160 169 173 172 166 162 153 155 151 145 148 158 158 160 163 156 151 149 138 133 146 153 154 149 143 149 152 147 161 169 169
226 231 248 259 249 226 232 253 169 157 168 149 197 225 231 225 136 198 196 210 215 226 233 224 227 223 221 237 263 82 97 123 168 112 32 21 62 160 169 150 142 137 148 153 147 145 134 138 147 149 147 140 149 147 148 155 169 169 159 147 147 148 145 143 144 145 147 156 158 157 154 149 146 136 148 144 145 152 154 144 143 142 141 151 155 147 155
217 218 233 239 261 218 191 235 159 161 140 217 217 228 197 147 227 181 201 208 213 220 227 225 218 231 234 237 126 146 168 169 146 124 129 110 99 67 84 128 138 126 117 98 94 90 102 127 130 142 133 135 136 141 151 158 151 133 130 137 138 133 137 137 135 132 145 137 140 136 141 137 134 144 136 135 147 146 145 141 150 154 150 159 163 168 159
229 227 235 235 236 153 202 152 55 235 208 226 228 181 241 165 211 218 229 216 220 217 231 234 233 239 204 215 207 181 173 168 168 167 166 171 159 156 148 151 153 136 131 128 124 128 128 131 137 133 133 126 126 133 133 123 119 129 132 132 131 130 124 121 133 136 134 135 127 126 133 139 142 131 136 138 132 128 134 136 148 157 161 148 156 154 156
229 214 222 223 233 221 182 157 220 176 215 223 170 163 230 194 188 196 239 238 243 287 280 284 332 333 314 308 244 105 214 149 130 132 153 141 134 136 145 145 155 141 128 129 128 132 137 138 137 135 139 131 136 136 127 129 127 118 119 118 111 109 113 114 121 126 130 126 127 133 131 130 127 125 135 135 137 149 143 147 149 145 155 155 160 164 167
228 237 244 270 341 254 206 209 238 214 218 232 222 230 253 242 220 176 205 263 280 218 210 259 292 290 235 243 194 205 199 187 175 173 173 169 164 158 152 149 137 140 136 137 129 121 123 121 121 127 131 129 132 133 132 129 130 126 117 121 120 121 123 129 132 132 129 134 133 129 132 135 135 137 129 136 144 147 147 153 152 156 156 162 172 177 180
271 272 264 283 277 270 277 251 261 267 241 247 277 247 252 247 226 182 200 202 200 188 202 205 230 224 303 282 253 243 185 168 176 139 141 138 142 133 127 128 146 132 119 112 119 116 105 90 108 108 128 140 137 138 134 135 130 124 128 129 125 122 127 130 126 128 119 119 125 126 139 144 140 146 148 153 149 151 155 159 161 163 164 170 180 181 189
325 275 318 288 307 336 330 311 306 304 284 300 349 298 260 287 195 219 267 244 214 184 176 208 224 212 183 225 229 247 238 186 168 169 164 163 159 156 148 143 134 136 133 125 118 119 106 87 83 69 82 67 113 126 130 129 125 129 132 127 120 127 128 127 127 129 134 141 139 138 137 140 138 137 143 148 141 148 158 158 162 167 167 173 179 184 189
275 293 312 306 294 280 270 260 287 287 304 329 303 290 309 298 286 265 272 254 254 183 231 210 247 278 236 201 213 195 215 200 169 166 165 155 152 141 133 138 141 126 124 121 127 117 111 97 87 84 80 70 84 107 113 123 128 128 126 129 131 132 132 134 141 142 136 132 132 141 141 134 137 136 141 147 149 158 170 169 167 173 172 177 182 184 184
285 281 276 275 280 278 264 258 229 217 224 264 299 296 283 284 281 272 263 213 251 241 254 233 210 231 223 211 200 182 166 175 178 176 162 161 151 146 146 154 153 145 137 131 116 112 110 110 102 97 82 65 62 93 108 127 133 128 123 123 122 119 131 130 132 137 135 143 143 136 133 117 91 101 142 158 153 123 53 129 159 169 174 176 181 176 168
276 264 282 303 310 304 290 275 261 241 222 209 250 263 263 258 256 260 264 274 258 257 260 255 217 223 225 196 183 188 182 179 164 151 153 155 147 144 120 124 132 126 131 126 133 126 117 116 109 100 91 69 42 68 102 127 127 127 128 116 117 127 131 132 130 132 136 138 129 130 128 126 112 79 52 59 50 110 141 97 78 61 78 127 140 148 140
267 276 268 266 258 269 269 276 278 275 276 245 239 247 254 260 249 251 257 260 263 250 236 198 224 235 221 195 177 163 154 162 158 159 158 156 157 152 150 136 133 125 120 122 123 124 121 121 103 100 90 68 73 76 95 131 133 134 138 128 125 126 136 143 151 138 131 133 137 130 127 127 124 116 111 89 75 78 94 120 121 114 104 104 111 119 129
254 264 273 268 247 261 275 272 257 260 269 255 257 257 249 250 258 247 227 233 245 259 240 221 217 219 201 183 172 172 158 145 140 148 151 108 107 121 128 129 133 131 132 137 140 134 132 121 114 108 96 59 69 65 80 131 142 142 152 146 144 149 138 126 131 133 123 124 126 130 130 131 131 133 125 118 83 74 87 98 99 97 102 107 113 116 98
252 254 264 259 228 240 251 271 297 288 250 227 244 246 248 254 248 219 222 238 231 250 246 224 225 225 191 176 171 164 161 154 152 145 147 149 140 157 148 140 150 145 143 137 124 121 121 126 116 112 100 81 29 18 34 134 147 142 149 149 130 123 122 129 126 129 130 130 139 135 142 140 142 140 138 132 127 111 85 79 78 78 83 88 90 89 89
240 253 258 251 281 264 280 308 289 275 262 220 236 259 260 257 268 233 231 231 239 195 183 179 188 219 184 171 161 137 127 148 152 152 150 158 157 155 164 163 150 128 116 120 122 128 126 124 119 114 104 73 50 5 344 107 140 136 130 129 139 141 149 138 133 138 136 140 138 142 138 140 140 141 138 136 136 134 131 125 91 70 64 66 78 86 87
239 245 258 274 269 265 256 251 264 269 275 254 231 250 262 286 217 216 266 256 242 221 201 176 157 149 153 157 131 131 146 140 138 161 164 158 163 148 120 96 115 118 117 117 114 120 125 119 104 104 87 59 13 335 43 109 113 111 109 114 106 94 106 123 118 119 119 119 115 115 123 128 131 126 116 121 132 142 152 150 144 132 125 80 70 78 83
247 238 218 229 249 256 259 246 244 261 260 251 243 243 255 197 180 194 205 210 201 172 156 158 154 158 158 159 150 137 124 160 170 163 162 166 144 111 105 100 101 104 101 93 99 99 86 94 95 82 75 42 11 346 56 112 110 101 106 103 103 110 111 102 96 102 108 110 116 121 124 118 108 104 121 132 134 127 116 113 118 124 114 89 80 63 70
252 249 236 234 246 255 263 83 281 264 260 251 243 244 202 210 226 219 225 208 182 166 184 184 184 184 176 172 167 165 166 167 167 169 152 122 123 114 107 107 101 96 102 105 107 117 116 108 98 93 85 27 8 16 84 113 111 111 115 118 113 107 104 105 101 102 94 92 87 100 99 106 109 109 105 99 102 114 116 115 116 108 117 133 127 101 79
254 257 254 249 247 253 260 261 255 253 254 247 224 230 211 213 228 230 220 205 179 203 209 172 175 187 182 175 182 173 172 176 167 136 127 131 124 127 126 122 106 95 99 100 132 136 123 119 120 114 115 67 81 101 112 101 97 94 94 80 76 94 106 110 109 104 103 96 102 101 102 102 104 111 109 112 113 114 118 121 125 127 129 130 119 127 126
312 292 274 267 259 253 244 248 251 252 253 249 221 227 224 219 230 236 212 182 189 207 178 178 185 175 182 183 169 143 109 109 117 118 108 116 120 133 147 161 156 166 168 155 141 131 120 104 85 98 87 90 93 119 119 113 116 114 105 102 99 99 104 102 97 111 117 120 122 118 114 114 117 116 120 124 119 114 112 118 114 110 112 116 121 116 110
309 294 278 256 250 246 243 243 249 251 251 243 218 226 223 207 213 222 218 197 206 199 182 176 178 178 172 143 119 109 106 103 93 105 124 130 133 140 140 109 64 97 97 106 122 133 130 125 116 131 132 140 149 156 132 129 130 117 116 122 117 119 112 115 107 107 109 112 116 112 120 124 124 122 121 122 125 125 129 127 127 129 133 123 123 124 137
329 306 277 258 252 255 257 255 248 251 249 233 223 230 229 216 222 225 219 207 177 163 168 174 167 158 140 124 114 112 111 102 101 108 127 129 119 92 60 71 89 99 94 85 96 110 120 122 127 131 132 127 121 114 112 126 125 117 120 116 111 111 117 107 114 116 113 115 110 123 128 119 126 125 122 119 117 124 124 117 121 121 113 120 118 127 186
302 283 301 319 313 301 290 276 252 241 246 239 235 235 234 226 227 228 206 174 170 165 171 168 152 139 132 131 130 131 132 128 137 149 147 127 128 112 103 100 96 96 94 97 90 96 100 116 126 130 130 124 119 111 108 119 111 110 123 124 123 123 120 123 128 120 119 110 112 119 113 113 116 123 126 125 123 118 117 123 128 127 129 130 130 131 253
298 290 286 285 294 286 288 293 293 276 251 244 235 229 228 227 217 215 188 173 182 181 163 142 142 138 132 131 135 148 157 153 150 140 143 136 126 129 127 120 114 110 100 89 93 100 95 95 105 111 113 108 109 115 113 116 104 114 107 107 106 109 114 120 122 123 122 124 127 125 123 117 108 107 111 111 113 121 126 130 132 137 140 143 148 152 97
316 309 307 306 304 306 305 300 298 298 279 248 238 228 220 216 203 191 183 182 145 129 128 137 142 140 142 149 145 154 154 139 138 135 141 139 139 137 136 135 131 122 119 105 78 90 119 112 98 109 106 98 90 73 84 113 95 101 114 116 111 108 102 97 99 93 100 117 114 103 100 103 106 103 109 108 115 123 131 130 138 142 143 149 149 162 160
321 312 306 306 302 305 303 301 302 307 298 275 244 222 205 191 181 155 123 124 136 146 147 146 142 150 151 156 149 135 115 123 122 139 144 145 146 145 143 135 128 135 135 127 155 149 125 109 109 114 104 98 95 90 100 123 124 123 120 114 109 116 119 117 114 112 105 96 105 108 115 114 107 109 119 124 133 131 130 133 136 135 146 151 162 168 173
313 313 311 307 308 307 303 304 310 305 304 287 277 266 202 175 152 142 136 126 128 144 154 159 156 149 139 126 112 113 118 121 131 137 138 143 146 131 125 133 141 150 130 120 137 136 122 108 105 101 92 95 99 105 98 108 124 121 112 114 113 111 108 111 112 110 115 113 109 116 123 125 128 133 133 128 128 130 132 131 140 155 161 172 173 182 185
323 323 316 315 312 308 311 314 326 318 325 318 310 324 357 111 127 128 131 138 137 139 153 155 135 126 136 130 124 119 127 134 140 141 142 143 144 125 100 52 23 13 40 101 115 100 93 88 113 99 92 89 104 100 99 104 107 96 99 103 101 103 107 109 113 109 105 114 118 120 117 118 125 131 143 142 137 126 126 141 153 158 169 177 181 197 192
320 322 320 322 318 320 320 320 327 329 325 328 331 335 332 141 139 128 117 113 133 144 148 148 153 143 134 122 124 130 132 137 144 145 141 135 112 104 100 72 55 63 79 84 91 86 96 101 100 89 90 98 101 106 102 110 112 99 98 101 102 102 102 105 113 116 122 124 124 129 120 131 133 140 136 141 137 142 140 151 166 177 184 184 210 219 223
320 318 322 319 317 320 322 320 321 327 326 329 344 340 342 343 53 107 117 116 108 104 140 157 128 115 121 115 120 115 122 127 130 121 120 115 114 131 117 126 121 92 86 89 84 95 101 105 106 100 98 93 78 105 110 108 100 90 94 97 102 106 116 118 118 122 134 134 135 139 142 139 137 145 145 140 144 141 150 167 172 192 200 207 218 216 234
321 321 317 321 319 323 320 319 316 330 347 342 343 348 3 2 15 75 102 106 98 83 89 72 95 110 107 106 110 116 117 117 108 87 68 54 86 136 120 115 128 113 107 94 93 90 97 84 83 89 96 98 93 96 102 100 87 88 90 90 92 96 102 108 110 111 103 108 111 116 120 136 140 147 145 145 149 169 171 180 200 209 219 215 224 232 234
325 326 324 319 321 320 319 320 325 326 334 355 357 356 3 35 63 77 74 57 75 88 86 85 95 101 105 111 111 101 97 99 95 109 90 65 42 357 72 123 129 114 100 97 98 95 94 92 89 79 91 95 105 111 98 89 90 93 89 94 87 96 94 98 102 111 117 125 126 134 146 158 165 163 165 176 176 175 177 190 211 219 208 216 217 225 231
323 321 323 322 320 323 326 326 330 339 4 7 360 4 17 32 40 63 65 68 77 73 87 99 101 102 108 120 120 117 118 124 121 117 110 95 62 42 64 104 112 107 102 106 102 98 100 95 93 102 99 100 101 95 91 88 88 92 90 91 100 98 108 103 105 123 136 144 155 167 174 177 175 173 166 174 184 180 195 211 223 218 225 228 240 234 236
327 324 321 324 320 321 331 336 339 346 348 346 19 26 21 32 37 43 65 72 76 81 80 91 99 108 116 112 98 103 99 95 69 112 116 121 115 114 92 95 111 112 106 108 102 101 97 98 106 105 102 97 95 97 90 89 88 91 100 102 102 108 119 128 142 145 153 158 170 170 177 184 179 175 187 193 203 216 214 213 229 215 221 235 229 234 232
321 318 319 317 325 329 326 328 327 328 338 9 48 39 27 25 36 41 40 49 62 63 59 65 67 66 73 86 91 95 90 75 63 39 19 12 104 139 139 125 116 113 118 112 103 101 98 106 106 102 100 99 101 96 91 93 97 102 105 113 120 128 140 147 148 161 169 179 176 178 185 186 179 196 202 205 214 227 243 240 260 243 228 236 241 242 251
331 336 339 340 336 337 342 354 16 26 25 31 40 40 26 29 42 50 58 59 68 72 72 71 78 87 95 96 101 104 104 92 65 42 58 75 84 91 108 107 116 121 120 111 107 103 112 109 102 101 99 96 93 91 99 104 108 116 118 121 129 142 145 154 168 177 184 187 173 176 202 198 212 214 214 234 240 240 238 240 246 247 239 235 247 250 248
344 344 345 347 347 349 357 24 41 40 39 45 52 59 46 52 60 64 64 67 67 70 71 70 63 61 63 57 47 35 32 74 97 71 68 84 94 106 115 123 117 105 101 91 91 88 89 96 96 93 95 98 94 94 95 99 114 122 130 146 157 162 173 171 184 191 180 186 205 217 213 216 216 224 224 227 240 236 234 239 247 251 249 238 241 246 242
356 350 352 2 7 7 19 32 42 54 50 41 46 57 58 65 70 67 63 62 63 65 64 59 57 57 54 47 48 45 46 26 55 125 132 105 102 97 96 100 97 89 89 97 99 95 93 101 106 104 102 95 98 98 101 105 103 121 153 159 168 179 174 188 197 175 199 198 217 222 236 229 232 217 231 232 241 244 238 244 248 245 244 247 246 246 244
7 8 15 15 18 14 11 37 44 43 46 44 45 41 23 50 71 56 51 54 62 68 65 57 56 52 56 57 60 57 58 69 77 84 91 86 89 91 93 90 98 95 91 99 100 96 91 90 94 102 107 92 90 103 115 136 165 173 174 178 212 197 203 180 180 190 218 237 235 232 236 236 239 239 242 247 243 242 241 241 244 247 249 251 254 256 253
21 25 20 16 18 21 14 24 35 37 41 35 38 30 25 51 62 59 51 49 66 67 71 67 55 48 49 56 55 52 60 64 67 70 77 79 82 83 84 93 92 90 92 90 90 95 105 105 109 111 114 118 124 134 144 184 215 177 212 224 221 242 232 217 227 229 228 225 231 233 236 242 231 236 243 242 242 243 241 239 246 244 242 245 246 249 246
19 25 23 25 29 30 30 28 22 26 29 29 27 38 44 48 58 60 48 30 50 65 67 82 69 36 34 48 53 58 57 62 73 77 74 77 81 86 84 84 86 84 88 91 89 76 83 91 80 70 66 90 103 119 130 152 218 224 224 224 236 237 229 232 231 231 235 231 232 238 239 237 236 239 244 241 238 239 244 242 242 244 243 244 244 242 250